• en France
  • Liste des pays
  • À 7 jours
  • Température de l'eau
  • Carte satellitaire
  • Carte météo
  • Widgets météo
  • user-avatar
    Se connecter

    Météo par heure à Pontypridd

    Ce jour, 21 Janvier, Dimanche

    Heure Température Précipitation Vent Pression Humidité
    00:00 +3°C° 0 mm 1 m/s 748 mmHg 90%
    01:00 +3°C° 0,1 mm 1 m/s 748 mmHg 90%
    02:00 +3°C° 0,1 mm 2 m/s 748 mmHg 90%
    03:00 +3°C° 0,1 mm 2 m/s 749 mmHg 90%
    04:00 +2°C° 0,4 mm 3 m/s 748 mmHg 91%
    05:00 +1°C° 0,4 mm 4 m/s 748 mmHg 92%
    06:00 +1°C° 0,4 mm 4 m/s 748 mmHg 93%
    07:00 +2°C° 1 mm 5 m/s 747 mmHg 94%
    08:00 +2°C° 1 mm 5 m/s 747 mmHg 95%
    09:00 +3°C° 1 mm 6 m/s 747 mmHg 96%
    10:00 +4°C° 2,6 mm 6 m/s 746 mmHg 96%
    11:00 +6°C° 2,6 mm 7 m/s 746 mmHg 96%
    12:00 +8°C° 2,6 mm 7 m/s 745 mmHg 96%
    13:00 +9°C° 2,1 mm 8 m/s 745 mmHg 95%
    14:00 +8°C° 2,1 mm 9 m/s 744 mmHg 95%
    15:00 +9°C° 2,1 mm 10 m/s 744 mmHg 94%
    16:00 +10°C° 1,3 mm 9 m/s 744 mmHg 94%
    17:00 +10°C° 1,3 mm 9 m/s 744 mmHg 94%
    18:00 +10°C° 1,3 mm 9 m/s 744 mmHg 94%
    19:00 +10°C° 0,1 mm 9 m/s 744 mmHg 94%
    20:00 +10°C° 0,1 mm 8 m/s 745 mmHg 93%
    21:00 +10°C° 0,1 mm 8 m/s 745 mmHg 93%
    22:00 +9°C° 0 mm 8 m/s 745 mmHg 92%
    23:00 +7°C° 0 mm 8 m/s 746 mmHg 91%

    Demain, 22 Janvier, Lundi

    Heure Température Précipitation Vent Pression Humidité
    00:00 +6°C° 0 mm 7 m/s 746 mmHg 90%
    01:00 +6°C° 0 mm 7 m/s 747 mmHg 90%
    02:00 +5°C° 0 mm 6 m/s 747 mmHg 90%
    03:00 +5°C° 0 mm 6 m/s 747 mmHg 90%
    04:00 +4°C° 0 mm 6 m/s 747 mmHg 90%
    05:00 +5°C° 0 mm 5 m/s 748 mmHg 90%
    06:00 +5°C° 0 mm 5 m/s 748 mmHg 90%
    07:00 +5°C° 0 mm 4 m/s 749 mmHg 90%
    08:00 +5°C° 0 mm 4 m/s 749 mmHg 90%
    09:00 +5°C° 0 mm 3 m/s 750 mmHg 91%
    10:00 +7°C° 0 mm 3 m/s 750 mmHg 87%
    11:00 +7°C° 0 mm 4 m/s 751 mmHg 84%
    12:00 +7°C° 0 mm 4 m/s 751 mmHg 81%
    13:00 +7°C° 0 mm 4 m/s 751 mmHg 81%
    14:00 +7°C° 0 mm 4 m/s 751 mmHg 81%
    15:00 +7°C° 0 mm 4 m/s 752 mmHg 81%
    16:00 +7°C° 0 mm 3 m/s 752 mmHg 84%
    17:00 +5°C° 0 mm 3 m/s 752 mmHg 86%
    18:00 +5°C° 0 mm 2 m/s 752 mmHg 88%
    19:00 +4°C° 0 mm 3 m/s 752 mmHg 89%
    20:00 +4°C° 0 mm 3 m/s 753 mmHg 90%
    21:00 +4°C° 0 mm 3 m/s 753 mmHg 90%
    22:00 +4°C° 0 mm 4 m/s 753 mmHg 91%
    23:00 +4°C° 0 mm 4 m/s 752 mmHg 92%

    Après-demain, 23 Janvier, Mardi

    Heure Température Précipitation Vent Pression Humidité
    00:00 +4°C° 0 mm 4 m/s 752 mmHg 93%
    01:00 +5°C° 0 mm 4 m/s 752 mmHg 93%
    02:00 +5°C° 0 mm 5 m/s 751 mmHg 94%
    03:00 +5°C° 0 mm 5 m/s 751 mmHg 94%
    04:00 +6°C° 0,1 mm 5 m/s 750 mmHg 95%
    05:00 +7°C° 0,1 mm 6 m/s 750 mmHg 95%
    06:00 +8°C° 0,1 mm 6 m/s 750 mmHg 96%
    07:00 +9°C° 0,4 mm 6 m/s 749 mmHg 96%
    08:00 +9°C° 0,4 mm 7 m/s 749 mmHg 96%
    09:00 +10°C° 0,4 mm 7 m/s 749 mmHg 96%
    10:00 +10°C° 0,1 mm 7 m/s 749 mmHg 94%
    11:00 +10°C° 0,1 mm 8 m/s 749 mmHg 93%
    12:00 +10°C° 0,1 mm 8 m/s 749 mmHg 91%
    13:00 +10°C° 0,1 mm 8 m/s 749 mmHg 91%
    14:00 +10°C° 0,1 mm 8 m/s 748 mmHg 91%
    15:00 +10°C° 0,1 mm 8 m/s 748 mmHg 91%
    16:00 +10°C° 0,3 mm 8 m/s 748 mmHg 91%
    17:00 +10°C° 0,3 mm 8 m/s 747 mmHg 92%
    18:00 +10°C° 0,3 mm 8 m/s 747 mmHg 92%
    19:00 +10°C° 0,3 mm 9 m/s 747 mmHg 92%
    20:00 +10°C° 0,3 mm 9 m/s 747 mmHg 92%
    21:00 +10°C° 0,3 mm 9 m/s 746 mmHg 92%
    22:00 +11°C° 0,2 mm 10 m/s 746 mmHg 92%
    23:00 +11°C° 0,2 mm 10 m/s 745 mmHg 92%

    24 Janvier, Mercredi

    Heure Température Précipitation Vent Pression Humidité
    00:00 +11°C° 0,2 mm 11 m/s 745 mmHg 91%
    01:00 +11°C° 0,3 mm 11 m/s 744 mmHg 90%
    02:00 +10°C° 0,3 mm 12 m/s 744 mmHg 90%
    03:00 +10°C° 0,3 mm 12 m/s 743 mmHg 89%
    04:00 +9°C° 0,6 mm 12 m/s 743 mmHg 88%
    05:00 +9°C° 0,6 mm 13 m/s 742 mmHg 88%
    06:00 +9°C° 0,6 mm 13 m/s 742 mmHg 87%
    07:00 +8°C° 0,7 mm 11 m/s 743 mmHg 86%
    08:00 +7°C° 0,7 mm 9 m/s 743 mmHg 84%
    09:00 +6°C° 0,7 mm 7 m/s 743 mmHg 83%
    10:00 +6°C° 0,1 mm 7 m/s 743 mmHg 82%
    11:00 +7°C° 0,1 mm 8 m/s 744 mmHg 80%
    12:00 +7°C° 0,1 mm 8 m/s 744 mmHg 79%
    13:00 +7°C° 0,1 mm 8 m/s 744 mmHg 77%
    14:00 +7°C° 0,1 mm 8 m/s 744 mmHg 76%
    15:00 +6°C° 0,1 mm 8 m/s 743 mmHg 74%
    16:00 +6°C° 0,1 mm 7 m/s 743 mmHg 77%
    17:00 +5°C° 0,1 mm 7 m/s 743 mmHg 80%
    18:00 +4°C° 0,1 mm 6 m/s 743 mmHg 83%
    19:00 +4°C° 0,2 mm 6 m/s 743 mmHg 83%
    20:00 +4°C° 0,2 mm 6 m/s 743 mmHg 83%
    21:00 +4°C° 0,2 mm 6 m/s 743 mmHg 84%
    22:00 +4°C° 0,4 mm 6 m/s 743 mmHg 85%
    23:00 +4°C° 0,4 mm 6 m/s 743 mmHg 86%

    25 Janvier, Jeudi

    Heure Température Précipitation Vent Pression Humidité
    00:00 +4°C° 0,4 mm 6 m/s 743 mmHg 87%
    01:00 +4°C° 0,2 mm 6 m/s 743 mmHg 86%
    02:00 +3°C° 0,2 mm 7 m/s 743 mmHg 84%
    03:00 +3°C° 0,2 mm 7 m/s 743 mmHg 83%
    04:00 +3°C° 0,1 mm 7 m/s 743 mmHg 82%
    05:00 +3°C° 0,1 mm 7 m/s 743 mmHg 82%
    06:00 +3°C° 0,1 mm 7 m/s 743 mmHg 82%
    07:00 +3°C° 0,1 mm 7 m/s 744 mmHg 82%
    08:00 +3°C° 0,1 mm 7 m/s 744 mmHg 82%
    09:00 +3°C° 0,1 mm 7 m/s 744 mmHg 81%
    10:00 +4°C° 0,1 mm 8 m/s 745 mmHg 78%
    11:00 +5°C° 0,1 mm 9 m/s 745 mmHg 75%
    12:00 +6°C° 0,1 mm 9 m/s 745 mmHg 71%
    13:00 +6°C° 0,2 mm 9 m/s 745 mmHg 72%
    14:00 +6°C° 0,2 mm 9 m/s 745 mmHg 73%
    15:00 +5°C° 0,2 mm 9 m/s 745 mmHg 74%
    16:00 +5°C° 0,3 mm 8 m/s 745 mmHg 77%
    17:00 +4°C° 0,3 mm 7 m/s 745 mmHg 79%
    18:00 +4°C° 0,3 mm 7 m/s 746 mmHg 82%
    19:00 +3°C° 0,2 mm 6 m/s 746 mmHg 83%
    20:00 +3°C° 0,2 mm 5 m/s 747 mmHg 84%
    21:00 +3°C° 0,2 mm 5 m/s 747 mmHg 85%
    22:00 +2°C° 0 mm 5 m/s 748 mmHg 86%
    23:00 +2°C° 0 mm 5 m/s 748 mmHg 86%

    26 Janvier, Vendredi

    Heure Température Précipitation Vent Pression Humidité
    00:00 +2°C° 0 mm 5 m/s 749 mmHg 87%
    01:00 +2°C° 0 mm 5 m/s 749 mmHg 88%
    02:00 +2°C° 0 mm 5 m/s 750 mmHg 88%
    03:00 +2°C° 0 mm 5 m/s 750 mmHg 89%
    04:00 +2°C° 0 mm 5 m/s 751 mmHg 88%
    05:00 +2°C° 0 mm 5 m/s 752 mmHg 88%
    06:00 +2°C° 0 mm 6 m/s 753 mmHg 87%
    07:00 +2°C° 0 mm 6 m/s 754 mmHg 87%
    08:00 +2°C° 0 mm 5 m/s 755 mmHg 87%
    09:00 +2°C° 0 mm 5 m/s 756 mmHg 88%
    10:00 +3°C° 0 mm 6 m/s 757 mmHg 84%
    11:00 +4°C° 0 mm 6 m/s 757 mmHg 80%
    12:00 +5°C° 0 mm 6 m/s 758 mmHg 76%
    13:00 +5°C° 0 mm 6 m/s 759 mmHg 76%
    14:00 +6°C° 0 mm 5 m/s 759 mmHg 75%
    15:00 +6°C° 0 mm 5 m/s 760 mmHg 75%
    16:00 +5°C° 0 mm 5 m/s 761 mmHg 79%
    17:00 +3°C° 0 mm 4 m/s 761 mmHg 83%
    18:00 +2°C° 0 mm 3 m/s 762 mmHg 87%
    19:00 +2°C° 0 mm 3 m/s 763 mmHg 88%
    20:00 +1°C° 0 mm 3 m/s 763 mmHg 89%
    21:00 +2°C° 0 mm 2 m/s 764 mmHg 90%
    22:00 +2°C° 0 mm 2 m/s 764 mmHg 90%
    23:00 +1°C° 0 mm 2 m/s 765 mmHg 90%
    Voir plus